map of MAM home
MAM - Airport
Location
City:  Matamoros, Tamaulipas, México
Name:General Servando Canales International Airport
ICAO:MMMA
IATA:MAM

Details
Type:Airport (Aerodrome, Airfield)
Use:Public/Civil, International (customs port of entry)
Latitude:25°46'12"N (25.769894)
Longitude:97°31'31"W (-97.525310)
Datum:WGS 1984
Elevation:25 ft (8 m)
Variation:3.89°E (WMM2015 magnetic declination)
-0.12° annual change
Runways:1
Longest:7546 × 151 ft (2300 × 46 m), paved

Time
Time Zone:UTC-6 (DST-5)
Local Time:

Weather
METAR:MMMA 072243Z 13012KT 7SM SCT020TCU BKN070 26/21 A2992 RMK 8/230 HZY ISOL CI
TAF:MMMA 070601Z 0706/0806 00000KT 1/4SM FG VV002
FM071430 13005KT 3SM BR SCT015
FM071800 14008KT P6SM SCT080 SCT200
BECMG 0803/0805 08004KT

Related Locations
Nearby:
Farthest:RRG: 11159 mi / 17959 km
Plaine Corail, Rodrigues Island, MU

Find:

   beyond  
but within

Other Information
Maps:
NOTAMs:
Links:
Sources:

  
flag of México
flag of Tamaulipas
  

Sectional Chart

Flight Planning
at skyvector.com

Satellite Image

Google Maps Satellite view

 

Copyright © 2004-2016 Karl L. Swartz. All rights reserved.
The Great Circle Mapper name and logo are trademarks of the Great Circle Mapper.
All other trademarks mentioned herein belong to their respective owners.
Please see credits for attibutions and further copyright information.

  Follow gcmap on Facebook Follow gcmap on Twitter Follow gcmap on Google+ GCmap on LinkedIn

hCard Microformat

Geo Microformat